"Pseudo-MPEC" for P22oDk4

Created 2026 Jul 26 18:35:14 UT using Find_Orb

Click here for an explanation of pseudo-MPECs

 
 Astrometry: 
     P22oDk4*0C2026 07 25.51204323 10 33.764+18 35 54.77   ~7PE5 21.81wXNEOCPF52
     P22oDk4 0C2026 07 25.53531523 10 35.004+18 36 06.04   ~7PE5 22.21wXNEOCPF52
     P22oDk4 0C2026 07 25.54747023 10 35.627+18 36 11.94   ~7PE5 22.58wXNEOCPF52
     P22oDk4 0C2026 07 25.59873223 10 38.351+18 36 36.73   ~7PLo 23.09GVNEOCPF52
     P22oDk4 0C2026 07 25.59936523 10 38.413+18 36 36.90   ~7PLo 22.39GVNEOCPF52

Station data:
(F52) Pan-STARRS 2, Haleakala  (N20.707382 W156.255910)  US/Hawaii.
   Observers J. Herman, T. Lowe, P. Minguez, A. Schultz, I. Smith. Measurers
   K. Chambers, T. de Boer, J. Fairlamb, H. Gao, M. Huber, C.-C. Lin, E.
   Magnier, Y. Ramanjooloo, R. Wainscoat, R. Weryk. 1.8-m Ritchey-Chrétien +
   CCD.

Orbital elements:  P22oDk4
   Perihelion 2026 Jun 23.952478 +/- 50.9 TT = 22:51:34.0 (JD 2461215.452478)
Epoch 2026 Jul 26.0 TT = JDT 2461247.5   Earth MOID: 0.4719   Ju: 0.6540
M   4.282312877 +/- 42              (J2000 ecliptic)             AutoNEOCP
n   0.133623837 +/- 0.264           Peri.   81.063948 +/- 110
a   3.789193259 +/- 4.99            Node   218.428551 +/- 28
e   0.61966063 +/- 0.247            Incl.    9.872211 +/- 13
P   7.37599                H 21.04  G  0.15   U 11.8  SR
q 1.441179350 +/- 0.533    Q 6.137207169 +/- 8.43
From 5 observations 2026 July 25 (2.1 hr); mean residual 0".13
Residuals in arcseconds: 
260725 F52  .08+  .08+    260725 F52  .23-  .07-    260725 F52  .24+  .04-    
260725 F52  .09+  .05-    260725 F52  .17-  .09+    

Ephemerides (geocentric):
Date (UTC) HH   RA             Dec           delta  r     elong  mag " sig PA
---- --------  ------------   ------------  ------ ------ -----  --- --------
2026 07 26 19  23 11 46.609   +18 45 49.73  .66087 1.4876 123.7 22.4  119  91
2026 07 26 20  23 11 48.923   +18 46 08.22  .66081 1.4877 123.7 22.4  124  91
2026 07 26 21  23 11 51.234   +18 46 26.64  .66075 1.4878 123.8 22.4  128  91
2026 07 26 22  23 11 53.540   +18 46 45.01  .66070 1.4880 123.8 22.4  133  91
2026 07 26 23  23 11 55.843   +18 47 03.33  .66064 1.4881 123.8 22.4  137  92
2026 07 27 00  23 11 58.141   +18 47 21.59  .66058 1.4882 123.8 22.4  142  92
2026 07 27 01  23 12 00.435   +18 47 39.80  .66053 1.4883 123.9 22.4  146  92
2026 07 27 02  23 12 02.724   +18 47 57.94  .66047 1.4884 123.9 22.4  151  92
2026 07 27 03  23 12 05.010   +18 48 16.04  .66042 1.4885 123.9 22.4  156  92
2026 07 27 04  23 12 07.292   +18 48 34.08  .66036 1.4887 123.9 22.4  161  92
2026 07 27 05  23 12 09.569   +18 48 52.06  .66031 1.4888 124.0 22.4  165  92
2026 07 27 06  23 12 11.842   +18 49 09.99  .66025 1.4889 124.0 22.4  170  92
2026 07 27 07  23 12 14.111   +18 49 27.86  .66020 1.4890 124.0 22.4  175  92
2026 07 27 08  23 12 16.376   +18 49 45.68  .66014 1.4891 124.0 22.4  180  92
2026 07 27 09  23 12 18.637   +18 50 03.44  .66009 1.4892 124.1 22.4  185  92
2026 07 27 10  23 12 20.894   +18 50 21.14  .66003 1.4894 124.1 22.4  190  93
2026 07 27 11  23 12 23.146   +18 50 38.79  .65998 1.4895 124.1 22.4  195  93
2026 07 27 12  23 12 25.394   +18 50 56.38  .65992 1.4896 124.1 22.4  200  93
2026 07 27 13  23 12 27.639   +18 51 13.92  .65987 1.4897 124.2 22.4  206  93
2026 07 27 14  23 12 29.879   +18 51 31.40  .65981 1.4898 124.2 22.4  211  93
2026 07 27 15  23 12 32.114   +18 51 48.83  .65976 1.4899 124.2 22.4  216  93
2026 07 27 16  23 12 34.346   +18 52 06.20  .65970 1.4901 124.2 22.4  221  93
2026 07 27 17  23 12 36.574   +18 52 23.52  .65965 1.4902 124.3 22.4  227  93
2026 07 27 18  23 12 38.797   +18 52 40.77  .65960 1.4903 124.3 22.4  232  93
2026 07 27 19  23 12 41.016   +18 52 57.98  .65954 1.4904 124.3 22.4  238  94
2026 07 27 20  23 12 43.231   +18 53 15.12  .65949 1.4905 124.3 22.4  244  94
2026 07 27 21  23 12 45.442   +18 53 32.22  .65943 1.4906 124.4 22.4  249  94
2026 07 27 22  23 12 47.649   +18 53 49.25  .65938 1.4908 124.4 22.4  255  94
2026 07 27 23  23 12 49.851   +18 54 06.23  .65933 1.4909 124.4 22.4  261  94
2026 07 28 00  23 12 52.050   +18 54 23.15  .65927 1.4910 124.4 22.4  267  94
2026 07 28 01  23 12 54.244   +18 54 40.02  .65922 1.4911 124.5 22.4  273  94
2026 07 28 02  23 12 56.434   +18 54 56.83  .65917 1.4912 124.5 22.4  279  95
2026 07 28 03  23 12 58.620   +18 55 13.59  .65911 1.4914 124.5 22.4  285  95
2026 07 28 04  23 13 00.802   +18 55 30.29  .65906 1.4915 124.6 22.4  291  95
2026 07 28 05  23 13 02.979   +18 55 46.93  .65901 1.4916 124.6 22.4  297  95
2026 07 28 06  23 13 05.153   +18 56 03.52  .65896 1.4917 124.6 22.4  303  95
2026 07 28 07  23 13 07.322   +18 56 20.05  .65890 1.4918 124.6 22.4  310  95
2026 07 28 08  23 13 09.487   +18 56 36.52  .65885 1.4920 124.7 22.4  316  95
2026 07 28 09  23 13 11.648   +18 56 52.94  .65880 1.4921 124.7 22.4  323  95
2026 07 28 10  23 13 13.805   +18 57 09.30  .65875 1.4922 124.7 22.4  329  96
2026 07 28 11  23 13 15.957   +18 57 25.61  .65869 1.4923 124.7 22.4  336  96
2026 07 28 12  23 13 18.106   +18 57 41.86  .65864 1.4924 124.8 22.4  343  96
2026 07 28 13  23 13 20.250   +18 57 58.05  .65859 1.4926 124.8 22.4  350  96
2026 07 28 14  23 13 22.390   +18 58 14.19  .65854 1.4927 124.8 22.4  357  96
2026 07 28 15  23 13 24.526   +18 58 30.27  .65849 1.4928 124.8 22.4  364  96
2026 07 28 16  23 13 26.658   +18 58 46.30  .65843 1.4929 124.9 22.4  371  96
2026 07 28 17  23 13 28.786   +18 59 02.27  .65838 1.4930 124.9 22.4  378  97
2026 07 28 18  23 13 30.909   +18 59 18.18  .65833 1.4932 124.9 22.4  386  97